GEFSNE_con_maxscp_354.txt.gz
SCP
5 4 3 3 3 2 1 1 1 1 2 2 2 1 1 1 1 1 1 1 1 1 1 1 1 1 1 1 2 2 2 1 1 1 1 1 1 1
5 4 4 3 3 2 2 2 2 2 2 2 2 1 1 2 2 1 1 1 1 1 1 1 1 1 1 1 1 1 1 1 1 1 1 1 1 1
5 5 4 4 3 2 2 2 3 3 3 3 2 1 2 2 2 2 2 1 1 1 1 1 0 0 0 1 1 1 1 0 0 0 0 0 1 1
6 5 4 4 3 3 2 3 3 4 4 3 2 2 2 2 2 2 1 1 1 1 1 0 0 0 0 0 0 0 0 0 0 0 0 0 0 1
7 6 5 4 4 3 3 3 3 3 3 3 3 2 2 2 2 1 1 1 1 1 1 1 0 0 0 0 0 0 0 0 0 0 0 0 0 0
8 7 6 5 4 4 4 4 3 3 3 3 3 3 2 2 2 1 2 2 1 1 1 1 1 1 0 0 0 0 0 0 0 0 0 0 0 0
9 8 6 5 4 3 3 3 4 4 4 4 3 3 2 2 1 1 2 2 2 1 2 2 2 1 1 1 0 0 0 0 0 0 0 0 0 0
9 8 6 5 3 2 2 2 3 3 4 4 4 3 2 2 2 1 2 2 2 2 2 2 2 1 1 1 1 1 0 0 0 0 0 0 0 0
9 8 7 5 3 2 2 2 2 2 3 3 3 3 3 2 2 2 2 2 2 2 2 1 1 1 1 1 1 1 0 0 0 0 0 0 0 0
9 8 7 5 3 3 3 3 3 3 3 2 2 2 2 2 3 3 3 2 2 2 2 1 1 1 1 1 1 1 0 0 0 0 0 0 0 0
8 7 6 4 3 2 3 4 5 5 4 2 2 2 2 2 2 3 3 3 2 1 2 2 1 1 1 2 2 1 0 0 0 0 0 0 0 0
7 5 4 2 2 1 2 4 5 5 5 4 3 2 2 2 2 3 4 3 2 1 2 2 2 1 2 2 2 2 1 1 0 0 0 0 0 0
5 4 3 2 1 1 1 3 3 4 5 5 4 4 4 4 3 3 4 3 2 2 3 3 2 2 2 2 2 2 1 1 1 1 0 0 0 0
4 4 3 2 1 0 1 1 2 2 4 5 5 4 4 5 4 4 4 4 4 3 4 4 3 3 2 2 2 1 1 1 1 1 1 1 0 0
4 3 2 1 1 0 0 0 1 2 3 3 3 3 4 4 4 4 4 4 4 4 4 5 4 3 3 2 2 1 1 1 1 1 1 1 1 1
4 3 2 1 1 1 1 1 1 2 2 2 2 2 2 2 3 3 3 4 4 4 4 4 4 4 4 3 2 2 2 2 1 1 1 2 2 1
5 5 4 3 2 2 2 2 2 1 2 2 2 2 1 2 2 2 3 3 3 3 4 4 4 4 4 4 3 3 3 3 2 2 1 1 1 1
5 5 5 4 4 3 3 3 2 1 1 1 1 1 1 1 2 3 3 3 3 3 3 3 3 3 3 3 4 4 5 5 4 3 2 1 1 1
4 5 6 6 5 5 4 3 2 1 1 1 1 1 1 2 2 3 4 3 3 2 1 1 1 1 1 2 2 3 4 6 6 4 2 1 1 1
5 5 6 6 7 6 5 3 2 1 2 2 2 2 2 2 3 3 3 2 2 1 1 0 0 0 0 1 1 1 2 4 5 4 2 1 1 1
6 6 6 7 7 6 5 3 2 2 2 3 3 4 4 3 3 2 2 1 1 0 0 0 0 0 0 0 0 0 0 1 2 2 1 0 0 0
7 7 7 7 6 5 4 3 3 2 2 3 3 4 3 3 2 1 1 0 0 0 0 0 0 0 0 0 0 0 0 0 0 0 0 0 0 0
6 6 7 6 5 3 3 3 3 3 2 2 3 2 2 1 1 0 0 0 0 0 0 0 0 0 0 0 0 0 0 0 0 0 0 0 0 0

GEFSNE_con_maxscp_360.txt.gz
SCP
4 4 4 4 4 3 3 3 3 2 2 2 2 2 2 2 1 2 2 2 1 0 0 1 1 1 1 1 1 1 0 0 0 1 1 2 2 2
4 4 4 4 4 3 3 3 3 3 2 2 2 2 2 2 2 2 3 2 1 1 0 0 0 0 0 1 1 1 0 0 0 1 1 1 2 2
5 5 5 4 4 3 3 3 4 4 3 3 3 3 3 3 3 4 3 3 2 1 1 0 0 0 0 0 0 0 0 0 0 1 1 1 1 1
8 7 7 6 6 5 4 3 4 4 4 3 3 3 3 3 4 4 4 3 2 1 1 0 0 0 0 0 0 0 0 0 0 0 1 1 1 1
11 11 11 10 8 7 5 4 4 4 4 4 4 3 3 3 4 4 3 2 2 1 1 1 0 0 0 0 0 0 0 0 0 0 0 0 0 0
14 15 14 13 11 9 7 5 4 4 4 4 3 3 4 5 5 4 3 2 1 1 1 1 1 0 0 0 0 0 0 0 0 0 0 0 0 0
16 17 17 15 13 11 9 7 5 4 4 3 3 3 5 7 6 4 3 2 2 1 1 1 1 1 1 1 0 0 0 0 0 0 0 0 0 0
17 17 17 15 14 12 10 7 6 4 3 3 3 3 5 6 6 4 3 2 2 2 2 1 1 1 1 1 1 0 0 0 0 0 0 0 0 0
17 17 16 14 14 13 11 8 6 5 3 3 3 4 5 5 6 5 3 3 2 2 2 2 1 1 1 1 1 0 0 0 0 0 0 0 0 0
14 15 16 15 14 13 13 11 9 6 3 3 3 4 5 5 6 4 3 2 2 3 2 2 2 1 1 1 1 0 0 0 0 0 0 0 0 0
10 12 13 14 13 12 13 13 11 7 4 2 3 3 3 3 4 3 3 2 2 3 3 2 2 1 1 1 1 1 0 0 0 0 0 0 0 0
10 11 11 10 9 8 10 13 12 8 5 3 2 2 2 1 2 3 3 3 3 3 3 2 2 2 2 2 2 1 1 0 0 0 0 0 0 0
11 11 10 8 5 4 6 8 8 6 5 4 3 2 2 1 2 2 3 3 3 3 2 3 3 2 2 2 2 2 2 1 1 0 0 0 0 0
9 9 8 6 3 1 2 3 4 3 3 4 3 3 3 3 3 3 3 2 2 2 3 3 3 3 3 2 2 3 2 2 1 1 1 0 0 0
6 5 5 4 2 1 1 1 1 2 3 4 4 4 4 5 5 4 3 2 2 2 3 3 3 3 3 3 3 3 3 2 1 1 1 1 1 0
4 3 3 2 2 2 2 2 2 3 4 4 5 4 4 4 4 4 3 3 3 3 2 3 3 3 3 3 3 3 3 2 2 1 1 1 1 1
4 4 4 3 3 4 4 4 4 4 5 5 4 4 2 2 2 3 3 3 3 2 2 3 3 3 3 3 2 2 2 2 2 1 1 1 0 1
5 5 5 5 5 5 5 5 5 6 6 6 5 3 2 1 2 3 3 3 2 2 2 2 3 3 2 2 1 1 1 1 2 1 1 1 0 0
5 5 6 6 6 6 6 6 6 8 8 7 5 3 1 1 2 2 3 3 2 2 2 2 2 2 1 1 0 0 0 1 1 1 1 1 0 0
4 5 6 6 6 6 6 6 7 8 8 6 3 2 1 1 1 2 3 3 2 2 1 2 1 1 1 0 0 0 0 0 0 0 0 0 0 0
5 5 5 6 7 7 8 8 8 6 5 3 2 1 1 1 1 2 3 3 2 2 1 1 1 1 1 0 0 0 0 0 0 0 0 0 0 0
4 4 5 6 8 9 10 10 8 5 2 1 1 1 1 1 2 3 3 3 2 1 1 1 1 1 1 0 0 0 0 0 0 0 0 0 0 0
3 3 4 6 9 11 12 11 8 4 2 1 1 1 1 1 2 3 3 2 2 1 1 1 1 1 1 0 0 0 0 0 0 0 0 0 0 0

GEFSNE_con_maxscp_366.txt.gz
SCP
3 2 2 2 2 2 2 2 2 1 1 0 0 0 1 1 1 1 1 1 1 0 0 0 0 0 0 0 0 0 1 1 1 1 1 1 2 2
2 2 2 2 2 2 2 2 2 1 1 0 0 1 1 1 1 1 1 1 1 1 0 0 0 0 0 0 0 0 0 1 1 1 1 1 1 1
3 3 2 2 2 1 1 2 2 2 1 1 0 1 1 1 1 1 1 1 1 1 1 0 0 0 0 0 0 0 0 0 1 1 0 1 1 1
5 5 4 3 3 2 2 1 1 1 1 1 1 1 1 1 1 1 1 1 1 1 1 0 0 0 0 0 0 0 0 0 0 0 0 1 1 1
9 8 7 6 5 5 4 3 2 1 1 1 1 1 1 1 1 1 1 1 1 1 1 1 0 0 0 0 0 0 0 0 0 0 0 0 1 1
12 12 11 9 8 8 7 6 4 2 1 1 1 1 1 1 1 1 1 0 0 1 1 1 1 0 0 0 0 0 0 0 0 0 0 0 0 0
13 13 12 11 10 10 10 9 7 5 3 2 2 1 1 1 1 1 1 1 0 0 1 1 1 1 0 0 0 0 0 0 0 0 0 0 0 0
12 12 12 11 11 10 10 9 8 7 6 6 5 3 2 2 2 2 1 1 1 1 1 0 0 0 0 0 0 0 0 0 0 0 0 0 0 0
9 10 10 10 10 10 10 9 8 8 8 9 8 6 4 2 2 2 2 1 1 1 1 0 0 0 0 0 0 0 0 0 0 0 0 0 0 0
7 7 8 9 9 10 10 10 9 8 8 9 9 8 5 3 2 2 1 1 1 1 1 1 0 0 0 0 0 0 0 0 0 0 0 0 0 0
5 5 6 7 7 8 9 10 10 8 7 7 7 6 4 2 1 1 1 1 1 1 1 1 1 1 1 0 0 0 0 0 0 0 0 0 0 0
4 4 4 4 4 5 6 8 8 7 6 6 5 4 2 1 1 1 1 1 0 0 1 1 1 1 1 1 0 0 0 0 0 0 0 0 0 0
3 3 3 2 2 2 3 4 5 4 4 4 3 2 1 1 0 0 0 0 0 0 0 1 1 1 1 1 1 0 0 0 0 0 0 0 0 0
3 3 2 2 1 1 1 1 2 2 3 3 3 2 2 1 1 0 0 0 0 0 0 0 1 1 1 1 1 1 0 0 0 0 0 0 0 0
3 3 2 1 1 1 0 0 1 1 2 3 3 3 2 1 1 1 1 1 0 0 0 0 1 1 1 1 1 1 1 0 0 0 0 0 0 0
2 2 2 1 1 1 1 1 1 1 2 2 3 2 2 1 1 1 1 1 1 0 0 0 0 1 1 0 0 0 1 0 0 0 0 0 0 0
2 2 2 2 2 2 1 1 1 1 2 2 2 1 1 1 1 1 1 1 1 0 0 0 0 0 0 0 0 0 0 0 0 0 0 0 0 0
2 2 2 3 2 2 2 2 2 2 2 2 2 2 1 1 1 1 1 1 1 0 0 0 0 0 0 0 0 0 0 0 0 0 0 0 0 0
2 2 3 3 3 3 3 3 3 3 3 3 3 3 2 2 1 1 1 1 0 0 0 0 0 0 0 0 0 0 0 0 0 0 0 0 0 0
2 2 3 3 3 4 4 4 4 4 4 4 4 4 3 3 2 1 1 1 0 0 0 0 0 0 0 0 0 0 0 0 0 0 0 0 0 0
2 3 3 3 4 4 4 4 4 4 5 5 5 4 4 3 2 1 1 0 0 0 0 0 0 0 0 0 0 0 0 0 0 0 0 0 0 0
4 3 3 3 3 3 3 3 4 4 5 5 4 3 3 2 1 1 0 0 0 0 0 0 0 0 0 0 0 0 0 0 0 0 0 0 0 0
5 4 4 3 3 3 3 3 4 5 5 5 4 2 2 1 1 0 0 0 0 0 0 0 0 0 0 0 0 0 0 0 0 0 0 0 0 0

GEFSNE_con_maxscp_372.txt.gz
SCP
1 1 1 1 1 1 1 1 1 1 1 0 1 1 1 1 1 2 2 1 1 1 1 1 0 0 0 0 0 0 0 0 0 1 1 1 1 1
1 1 1 1 1 1 1 1 1 1 1 1 1 1 1 1 2 2 2 1 1 1 1 0 0 0 0 0 0 0 0 0 0 0 0 1 1 1
2 2 1 1 1 1 1 1 1 1 1 1 1 1 1 1 2 2 2 1 1 1 0 0 0 0 0 0 0 0 0 0 0 0 0 0 1 1
4 3 3 2 1 1 1 1 1 1 1 1 1 1 1 1 2 2 1 1 1 1 0 0 0 0 0 0 0 0 0 0 0 0 0 0 1 1
5 5 4 4 3 3 3 3 2 2 1 1 1 1 1 1 1 1 1 1 1 0 0 0 0 0 0 0 0 0 0 0 0 0 0 0 0 0
7 6 6 6 5 5 5 5 5 3 2 1 1 1 1 1 1 1 1 1 1 1 0 0 0 0 0 0 0 0 0 0 0 0 0 0 0 0
7 7 7 7 7 7 8 8 8 7 4 2 2 2 2 2 1 1 1 1 1 1 1 1 1 1 0 0 0 0 0 0 0 0 0 0 0 0
6 6 7 7 7 8 8 9 9 8 6 5 4 4 3 3 2 1 1 1 1 1 1 1 1 1 1 0 0 0 0 0 0 0 0 0 0 0
5 5 5 6 6 7 7 7 8 8 7 6 7 7 6 5 4 2 2 1 1 1 1 1 1 1 1 0 0 0 0 0 0 0 0 0 0 0
4 4 5 5 6 6 7 7 7 7 7 7 8 9 8 7 5 4 2 2 1 1 1 1 1 1 1 0 0 0 0 0 0 0 0 0 0 0
4 4 5 5 5 5 6 7 7 7 7 7 7 7 6 6 5 4 4 2 2 1 1 2 2 1 1 1 1 0 0 0 0 0 0 0 0 0
4 4 4 4 3 3 4 5 6 6 6 6 5 5 4 4 4 5 5 4 2 1 1 1 2 2 2 1 1 1 0 0 0 0 0 0 0 0
4 4 3 3 2 1 2 4 4 4 5 5 5 5 5 5 4 5 5 4 2 1 1 1 2 2 2 2 2 1 1 1 1 0 0 0 0 0
3 3 3 2 1 1 1 2 3 3 4 4 4 5 5 5 4 3 3 2 2 1 1 1 1 2 2 2 2 2 2 1 1 0 0 0 0 0
1 2 2 1 1 1 1 1 2 3 4 5 4 4 4 4 3 2 2 1 1 1 1 1 1 1 2 2 2 2 2 2 1 1 0 0 0 0
1 1 1 1 2 3 3 2 2 3 5 5 5 4 4 3 2 2 2 1 1 1 1 1 1 1 1 2 2 2 2 2 1 1 0 0 0 0
1 1 1 2 4 6 6 5 4 4 4 5 4 4 3 3 2 2 2 1 1 1 1 1 1 1 1 1 1 2 2 2 1 1 0 0 0 0
1 2 1 2 4 7 8 8 6 5 4 4 4 3 3 3 2 2 2 2 1 1 1 1 1 1 1 1 1 1 2 1 1 0 0 0 0 0
1 2 2 1 2 5 6 6 6 5 5 5 4 4 4 4 3 3 2 1 1 1 1 1 1 1 1 1 1 1 1 1 1 0 0 0 0 0
1 1 2 1 1 2 3 4 4 5 6 5 5 5 4 5 4 3 2 2 2 2 1 1 1 1 1 1 0 0 0 0 0 0 0 0 0 0
0 1 1 1 2 2 3 3 4 4 4 4 4 4 4 4 4 4 3 3 2 2 1 1 1 1 1 1 0 0 0 0 0 0 0 0 0 0
0 0 1 1 1 2 3 3 3 3 3 3 3 3 4 4 4 4 4 3 3 2 1 1 1 1 0 0 0 0 0 0 0 0 0 0 0 0
0 0 1 1 1 2 3 3 3 3 2 3 3 3 4 4 4 4 4 3 3 1 1 1 1 1 0 0 0 0 0 0 0 0 0 0 0 0

GEFSNE_con_maxscp_378.txt.gz
SCP
2 2 2 2 2 3 3 2 2 2 1 2 2 2 2 1 2 2 2 1 0 0 0 0 0 0 0 0 0 0 0 0 1 1 1 1 1 1
2 2 2 2 3 3 3 2 2 2 2 2 2 2 2 2 2 2 2 1 1 0 0 0 0 0 0 0 0 0 0 0 0 0 0 0 1 1
3 3 3 3 3 3 2 2 2 2 2 1 1 1 2 2 2 2 2 2 1 1 0 0 0 0 0 0 0 0 0 0 0 0 0 0 0 1
4 4 3 3 3 2 2 2 2 2 2 1 1 2 2 2 2 2 2 2 2 1 0 0 0 0 0 0 0 0 0 0 0 0 0 0 0 0
4 4 3 3 3 3 3 3 3 3 3 2 2 3 3 2 2 2 2 2 2 1 1 0 0 0 0 0 0 0 0 0 0 0 0 0 0 0
4 4 4 4 4 4 5 5 5 5 5 4 3 4 4 4 3 3 3 4 3 3 2 1 1 0 0 0 0 0 0 0 0 0 0 0 0 0
5 5 4 4 4 5 6 6 7 8 8 7 6 6 7 7 7 6 6 6 5 4 3 3 2 2 1 1 0 0 0 0 0 0 0 0 0 0
5 6 5 5 5 5 5 6 6 8 9 9 9 10 11 12 11 10 9 7 5 4 4 4 3 3 3 2 1 0 0 0 0 0 0 0 0 0
5 6 6 6 6 6 6 6 6 6 7 9 11 12 14 15 15 13 12 10 7 5 5 5 4 3 3 3 2 1 0 0 0 0 0 0 0 0
5 6 7 7 7 7 7 8 8 7 6 7 9 11 12 15 15 14 13 11 9 7 7 6 5 4 3 3 2 1 0 0 0 0 0 0 0 0
6 7 8 7 6 6 7 9 9 7 6 6 7 8 9 10 12 12 12 11 9 8 8 8 7 5 4 4 3 1 0 0 0 0 0 0 0 0
9 9 9 7 5 4 6 7 7 7 6 7 7 8 9 9 9 10 11 11 10 8 8 10 8 6 5 4 3 1 1 0 0 0 0 0 0 0
9 9 8 5 3 2 3 5 5 5 6 8 9 10 11 11 10 11 12 13 12 8 8 10 8 6 5 4 3 2 2 1 1 0 0 0 0 0
6 6 5 3 2 1 1 2 2 3 5 7 8 9 10 11 11 12 13 13 11 9 8 8 7 5 4 4 4 4 4 3 2 1 1 0 0 0
3 3 2 1 1 1 1 0 1 2 3 4 5 6 8 10 12 12 12 10 8 8 7 6 6 5 4 3 4 5 6 5 4 3 3 2 1 0
2 2 2 1 1 1 1 1 1 2 2 2 3 5 8 12 14 12 9 6 6 5 5 5 5 5 5 4 4 4 5 5 5 5 5 5 3 2
2 2 2 2 2 2 2 2 2 2 2 2 2 4 8 12 12 10 7 5 4 4 4 4 5 6 6 5 4 3 3 4 4 4 5 5 4 3
2 2 3 3 3 3 3 3 3 3 2 2 2 3 6 8 8 7 5 4 4 4 4 4 5 5 5 5 4 3 3 3 3 4 4 5 4 4
2 2 2 2 2 2 3 4 4 3 3 2 2 2 3 4 4 4 4 3 3 3 4 4 4 4 3 3 3 3 3 4 4 4 4 4 3 3
1 2 2 2 2 2 2 3 3 3 4 4 3 3 2 2 3 3 3 3 3 3 3 4 3 3 2 3 3 3 2 3 4 4 3 3 2 2
1 1 2 2 2 2 2 2 3 3 4 5 4 3 3 3 3 3 2 2 3 3 4 4 3 3 2 3 4 3 2 2 3 3 2 2 1 1
1 1 1 2 2 3 3 3 3 4 4 4 4 4 3 3 3 3 2 2 3 3 4 4 4 3 2 3 3 2 2 2 2 2 1 1 1 1
1 1 1 1 2 3 3 3 4 4 5 4 4 4 3 3 3 3 3 3 3 3 4 4 4 3 2 2 2 2 2 2 2 1 1 0 0 0

GEFSNE_con_maxscp_384.txt.gz
SCP
6 6 5 5 4 3 3 2 2 2 2 2 2 2 2 2 1 2 2 1 1 1 0 0 0 0 1 1 1 1 1 0 0 0 0 0 1 1
7 6 6 5 4 3 3 3 3 2 2 2 2 2 2 2 1 2 2 1 1 1 0 0 0 0 0 0 0 0 0 0 0 0 0 0 0 1
8 8 7 7 6 4 4 4 3 3 2 2 2 2 2 2 2 3 2 2 1 1 0 0 0 0 0 0 0 0 0 0 0 0 0 0 0 0
9 8 8 8 7 6 5 5 5 4 3 2 2 2 3 3 4 3 3 2 2 1 1 0 0 0 0 0 0 0 0 0 0 0 0 0 0 0
10 9 8 8 8 8 7 6 6 6 5 4 3 3 3 4 5 5 4 4 3 2 1 1 0 0 0 0 0 0 0 0 0 0 0 0 0 0
11 10 9 9 9 8 8 7 7 7 7 7 6 5 5 6 7 8 7 6 5 3 2 2 1 0 0 0 0 0 0 0 0 0 0 0 0 0
12 12 10 9 8 7 7 7 8 8 8 8 8 7 7 8 9 10 9 8 7 6 4 3 3 2 1 1 0 0 0 0 0 0 0 0 0 0
14 13 11 9 8 7 6 6 7 7 8 8 9 9 10 11 11 10 10 9 9 8 7 7 7 6 5 3 2 1 0 0 0 0 0 0 0 0
13 12 10 8 8 8 8 7 6 6 7 9 10 10 11 12 12 12 11 12 12 13 12 11 11 11 9 7 4 1 0 0 0 0 0 0 0 0
11 10 8 7 7 9 10 10 8 7 7 7 9 10 10 11 12 13 14 14 15 15 15 14 13 12 11 9 5 2 0 0 0 0 0 0 0 0
8 7 6 6 5 7 8 9 8 7 6 6 7 8 8 8 9 12 13 13 13 13 13 12 11 10 8 7 4 2 0 0 0 0 0 0 0 0
7 6 5 4 3 3 4 6 6 6 6 7 7 7 7 7 7 9 11 11 11 10 10 10 9 7 6 5 5 3 1 0 0 0 0 0 0 0
6 6 4 2 1 1 2 3 4 4 6 8 9 9 9 8 6 6 8 9 9 9 9 9 7 6 5 5 5 4 1 0 0 0 0 0 0 0
5 5 3 2 0 0 1 1 2 2 4 7 8 8 7 6 5 4 5 6 7 8 8 8 6 5 4 4 5 4 2 1 0 0 0 0 0 0
3 2 2 1 0 0 0 0 0 1 2 4 4 4 3 3 2 2 3 4 5 7 8 7 5 4 4 4 5 3 2 1 1 1 0 0 0 0
1 1 1 1 1 1 1 1 1 1 2 2 2 2 2 1 1 1 2 3 4 4 6 6 4 3 3 4 3 3 2 2 1 1 1 0 0 0
1 1 2 2 2 2 2 2 1 1 2 2 2 2 2 2 2 2 2 2 2 3 3 4 3 2 2 2 2 2 2 2 2 1 1 1 1 1
2 2 2 2 2 2 2 2 2 2 2 2 2 2 2 2 2 2 2 2 2 2 2 3 2 2 1 1 1 1 1 2 2 1 1 1 1 1
2 2 2 2 3 2 2 2 2 2 2 2 2 2 2 2 2 2 3 3 3 3 3 3 3 2 2 1 1 1 1 1 2 1 1 1 1 1
2 2 2 2 3 3 3 3 2 2 2 2 2 2 2 2 2 3 3 3 3 4 4 4 3 2 2 2 2 1 1 1 2 2 1 1 1 1
1 1 1 2 2 3 3 3 3 3 3 3 3 3 3 3 3 3 4 4 4 5 5 4 4 3 2 2 2 1 1 1 1 1 1 1 1 1
1 1 1 1 1 2 3 3 3 3 3 4 4 4 4 4 4 4 4 5 5 5 5 5 4 4 3 2 2 2 2 1 1 1 1 1 1 1
0 0 0 1 1 1 2 2 3 3 3 4 4 4 5 5 4 4 4 5 6 6 5 4 4 4 4 3 2 2 2 2 2 1 0 0 0 0